Meteo Giornale » Osservazioni meteo Georgia » Mestia
ore: 01:30 - Osservazioni Meteo Mestia
Lat. 43° 3' N Lon. 42° 45' E Alt. 1440 metri s.l.m.
12 °C
Sereno
Temp. 24 Ore
0 °C
21 °C
Nord
5.5 Km/h
Dew point 12 °C
Umidità 100 %
Visibilità 12 Km
Il sole sorge alle ore 06:34
Il sole tramonta alle ore 19:43
| Data e Ora | Cielo e Fenomeni | T °C | DP °C | Um. % | Pres. hPa | Vis. km | Vento km/h | |
|---|---|---|---|---|---|---|---|---|
| Oggi h: 01:30 | Sereno | 12 | 12 | 100 | 1023 | 12 | N 5.5 | |
| Oggi h: 01:00 | Sereno | 11 | 11 | 100 | 1023 | 12 | N 3.7 | |
| Oggi h: 00:30 | Sereno | 12 | 12 | 100 | 1023 | 12 | N 5.5 | |
| Oggi h: 00:00 | Sereno | 12 | 12 | 100 | 1023 | 12 | N 5.5 | |
| Ieri h: 23:30 | Sereno | 13 | 13 | 100 | 1023 | 12 | N 5.5 | |
| Ieri h: 23:00 | Sereno | 14 | 14 | 100 | 1023 | 12 | N 3.7 | |
| Ieri h: 22:30 | Sereno | 14 | 14 | 100 | 1023 | 12 | S 9.3 | |
| Ieri h: 22:00 | Sereno | 15 | 15 | 100 | 1023 | 12 | N 5.5 | |
| Ieri h: 21:30 | Sereno | 15 | 15 | 100 | 1023 | 12 | N 3.7 | |
| Ieri h: 21:00 | Sereno | 15 | 15 | 100 | 1022 | 12 | N 1.8 | |
| Ieri h: 20:30 | Sereno | 16 | 14 | 87 | 1022 | 12 | N 1.8 | |
| Ieri h: 20:00 | Sereno | 17 | 13 | 77 | 1021 | 12 | N 5.5 | |
| Ieri h: 19:30 | Sereno | 17 | 13 | 77 | 1021 | 12 | NE 7.4 | |
| Ieri h: 19:00 | Sereno | 17 | 13 | 77 | 1021 | 12 | N 3.7 | |
| Ieri h: 18:30 | Sereno | 18 | 14 | 77 | 1020 | 11 | N 3.7 | |
| Ieri h: 18:00 | Sereno | 19 | 13 | 68 | 1020 | 11 | SO 7.4 | |
| Ieri h: 17:30 | Sereno | 20 | 13 | 64 | 1020 | 11 | N 5.5 | |
| Ieri h: 17:00 | Sereno | 21 | 11 | 52 | 1020 | 11 | N 1.8 | |
| Ieri h: 16:30 | Sereno | 20 | 11 | 56 | 1020 | 11 | N 1.8 | |
| Ieri h: 16:00 | Molto Nuvoloso | 20 | 12 | 59 | 1020 | 10 | O/SO 7.4 | |
| Ieri h: 15:30 | Molto Nuvoloso | 20 | 11 | 56 | 1021 | 10 | N 3.7 | |
| Ieri h: 15:00 | Molto Nuvoloso | 20 | 11 | 56 | 1020 | 10 | N 3.7 | |
| Ieri h: 14:30 | Molto Nuvoloso | 20 | 11 | 56 | 1021 | 10 | N 3.7 | |
| Ieri h: 14:00 | Molto Nuvoloso | 20 | 12 | 59 | 1021 | 10 | N 5.5 | |
| Ieri h: 13:30 | Molto Nuvoloso | 19 | 12 | 63 | 1020 | 10 | S/SO 7.4 | |
| Ieri h: 13:00 | Molto Nuvoloso | 19 | 11 | 59 | 1021 | 10 | N 3.7 | |
| Ieri h: 12:30 | Molto Nuvoloso | 18 | 12 | 67 | 1021 | 10 | N 1.8 | |
| Ieri h: 12:00 | Molto Nuvoloso | 18 | 12 | 67 | 1021 | 10 | N 5.5 | |
| Ieri h: 11:30 | Coperto | 17 | 12 | 72 | 1021 | 10 | N 3.7 | |
| Ieri h: 11:00 | Molto Nuvoloso | 17 | 12 | 72 | 1021 | 10 | N 5.5 | |
| Ieri h: 10:30 | Molto Nuvoloso | 0 | 0 | 88 | 1021 | 10 | N 0 | |
| Ieri h: 10:00 | Molto Nuvoloso | 15 | 13 | 87 | 1021 | 10 | N 5.5 | |
| Ieri h: 09:30 | Molto Nuvoloso | 15 | 13 | 87 | 1021 | 10 | N 3.7 | |
| Ieri h: 09:00 | Molto Nuvoloso | 14 | 14 | 100 | 1021 | 10 | N 3.7 | |
| Ieri h: 08:30 | Molto Nuvoloso | 14 | 13 | 93 | 1021 | 10 | N 3.7 | |
| Ieri h: 08:00 | Molto Nuvoloso | 13 | 13 | 100 | 1021 | 10 | N/NE 7.4 | |
| Ieri h: 07:30 | Sereno | 13 | 12 | 93 | 1021 | 10 | N 5.5 | |
| Ieri h: 07:00 | Sereno | 12 | 12 | 100 | 1021 | 10 | N 3.7 | |
| Ieri h: 06:30 | Sereno | 13 | 12 | 93 | 1020 | 10 | N 3.7 | |
| Ieri h: 06:00 | Sereno | 13 | 13 | 100 | 1020 | 10 | N 3.7 | |
| Ieri h: 05:30 | Sereno | 13 | 13 | 100 | 1021 | 10 | N 3.7 | |
| Ieri h: 05:00 | Sereno | 13 | 13 | 100 | 1021 | 10 | N 3.7 | |
| Ieri h: 04:30 | Sereno | 13 | 13 | 100 | 1021 | 10 | N 1.8 | |
| Ieri h: 04:00 | Sereno | 13 | 13 | 100 | 1021 | 10 | N 1.8 | |
| Ieri h: 03:30 | Sereno | 13 | 13 | 100 | 1021 | 0 | N 1.8 | |
| Ieri h: 03:00 | Sereno | 13 | 13 | 100 | 1021 | 0 | N 1.8 | |



